Weather History for Scottsbluff, NE

Change the Weather History Date:

Tuesday, January 24, 2012

  Actual Average Record
Temperature  
Mean Temperature 28 °F 28 °F  
Max Temperature 40 °F 41 °F 65 °F (2013)
Min Temperature 15 °F 14 °F -19 °F (1894)
Degree Days  
Heating Degree Days 37 37  
Month to date heating degree days 841 911  
Since 1 July heating degree days 3412 3683  
Cooling Degree Days 0 0  
Month to date cooling degree days 0 0  
Year to date cooling degree days 0 0  
Moisture  
Dew Point 25 °F    
Average Humidity 68    
Maximum Humidity 92    
Minimum Humidity 44    
Precipitation  
Precipitation 0.02 in 0.01 in 0.82 in (1921)
Month to date precipitation 0.08 0.31  
Year to date precipitation 0.08 0.31  
Snow  
Snow T in 0.10 in 8.50 in (1921)
Month to date snowfall 1.1 4.1  
Since 1 July snowfall 10.1 20.1  
Snow Depth 0.00 in    
Sea Level Pressure  
Sea Level Pressure 30.10 in    
Wind  
Wind Speed 8 mph (NW)    
Max Wind Speed 20 mph    
Max Gust Speed 25 mph    
Visibility 7 miles    
Events Snow    
T = Trace of Precipitation, MM = Missing Value Source: NWS Daily Summary

Daily Weather History Graph

Daily Weather History Graph

Search for Another Location

Airport:

Trip Planner

Search our weather history database for the weather conditions in past years. The results will help you decide how hot, cold, wet, or windy it might be!

Date:

Astronomy

Jan. 24, 2012 Rise Set
Actual Time 7:14 AM MST 4:58 PM MST
Civil Twilight 6:44 AM MST 5:29 PM MST
Nautical Twilight 6:10 AM MST 6:02 PM MST
Astronomical Twilight 5:37 AM MST 6:35 PM MST
Moon 7:42 AM MST (1/24) 6:55 PM MST (1/24)
Length of Visible Light 10h 44m
Length of Day
9h 44m
Waxing Crescent, 3% of the Moon is Illuminated
Jan 24
Waxing Crescent
Jan 30
First Quarter
Feb 7
Full
Feb 14
Last Quarter
Feb 21
New

Hourly Weather History & Observations

Time (MST) Temp. Windchill Dew Point Humidity Pressure Visibility Wind Dir Wind Speed Gust Speed Precip Events Conditions
12:53 AM 23.0 °F 15.8 °F 12.0 °F 63% 29.87 in 10.0 mi East 5.8 mph - N/A   Clear
1:53 AM 26.1 °F - 14.0 °F 60% 29.88 in 10.0 mi Calm Calm - N/A   Overcast
2:53 AM 27.0 °F 19.5 °F 14.0 °F 58% 29.88 in 10.0 mi ESE 6.9 mph - N/A   Overcast
3:53 AM 26.6 °F 21.2 °F 15.8 °F 64% 29.88 in 10.0 mi NW 4.6 mph - N/A   Overcast
4:53 AM 28.9 °F 25.2 °F 15.1 °F 56% 29.94 in 10.0 mi WNW 3.5 mph - N/A   Overcast
5:53 AM 30.9 °F 24.3 °F 21.9 °F 69% 29.99 in 10.0 mi Variable 6.9 mph - N/A   Overcast
6:53 AM 33.1 °F 23.9 °F 28.9 °F 85% 30.02 in 10.0 mi WNW 12.7 mph - N/A   Overcast
7:05 AM 33.8 °F 24.3 °F 30.2 °F 87% 29.96 in 4.0 mi WNW 13.8 mph - N/A Snow Light Snow
7:14 AM 32.0 °F 22.1 °F 30.2 °F 93% 29.97 in 2.0 mi WNW 13.8 mph - 0.00 in Snow Light Snow
7:34 AM 32.0 °F 20.8 °F 30.2 °F 93% 29.98 in 1.8 mi NW 17.3 mph - 0.00 in Snow Light Snow
7:50 AM 32.0 °F 21.6 °F 28.4 °F 87% 29.99 in 1.5 mi NW 15.0 mph 24.2 mph 0.00 in Snow Light Snow
7:53 AM 32.0 °F 22.1 °F 28.0 °F 85% 30.08 in 1.2 mi NW 13.8 mph 24.2 mph 0.00 in Snow Light Snow
8:13 AM 30.2 °F 21.9 °F 28.4 °F 93% 30.01 in 2.0 mi WNW 9.2 mph - 0.01 in Snow Light Snow
8:35 AM 30.2 °F 20.8 °F 28.4 °F 93% 30.03 in 4.0 mi WNW 11.5 mph - 0.01 in Snow Light Snow
8:53 AM 32.0 °F 22.5 °F 28.0 °F 85% 30.12 in 3.0 mi WNW 12.7 mph - 0.01 in Snow Light Snow
9:01 AM 32.0 °F 23.6 °F 28.4 °F 87% 30.05 in 2.0 mi NW 10.4 mph - 0.00 in Snow Light Snow
9:21 AM 33.8 °F 25.3 °F 28.4 °F 81% 30.06 in 3.0 mi WNW 11.5 mph - 0.00 in Snow Light Snow
9:53 AM 34.0 °F 26.6 °F 30.0 °F 85% 30.16 in 3.0 mi NW 9.2 mph - 0.00 in Snow Light Snow
10:47 AM 33.8 °F 25.8 °F 30.2 °F 87% 30.08 in 2.5 mi NW 10.4 mph - 0.00 in Snow Light Snow
10:53 AM 34.0 °F 26.6 °F 30.9 °F 89% 30.17 in 1.8 mi NNW 9.2 mph - 0.00 in Snow Light Snow
10:56 AM 33.8 °F 24.8 °F 30.2 °F 87% 30.08 in 1.5 mi NW 12.7 mph 17.3 mph 0.00 in Snow Light Snow
11:06 AM 33.8 °F 25.3 °F 32.0 °F 93% 30.08 in 1.0 mi NNW 11.5 mph - 0.00 in Snow Light Snow
11:18 AM 35.6 °F 27.5 °F 33.8 °F 93% 30.09 in 2.5 mi NW 11.5 mph - 0.01 in Snow Light Snow
11:27 AM 35.6 °F 27.1 °F 33.8 °F 93% 30.09 in 4.0 mi NNW 12.7 mph - 0.01 in   Overcast
11:39 AM 35.6 °F 27.1 °F 33.8 °F 93% 30.09 in 10.0 mi NNW 12.7 mph - 0.01 in   Overcast
11:53 AM 35.1 °F 26.9 °F 33.1 °F 92% 30.18 in 10.0 mi NNW 11.5 mph - 0.01 in   Overcast
12:51 PM 35.6 °F 26.6 °F 33.8 °F 93% 30.11 in 10.0 mi NNW 13.8 mph - N/A   Overcast
12:53 PM 35.1 °F 26.4 °F 33.1 °F 92% 30.19 in 10.0 mi NNW 12.7 mph - N/A   Overcast
1:39 PM 35.6 °F 28.0 °F 33.8 °F 93% 30.11 in 10.0 mi NNW 10.4 mph - N/A   Overcast
1:53 PM 37.0 °F 28.9 °F 34.0 °F 89% 30.19 in 10.0 mi North 12.7 mph - N/A   Overcast
2:04 PM 37.4 °F 28.5 °F 35.6 °F 93% 30.11 in 10.0 mi NNW 15.0 mph - N/A   Overcast
2:53 PM 37.9 °F 29.2 °F 24.1 °F 57% 30.19 in 10.0 mi North 15.0 mph 24.2 mph N/A   Mostly Cloudy
3:53 PM 39.0 °F 32.3 °F 19.0 °F 45% 30.21 in 10.0 mi NNW 10.4 mph - N/A   Clear
4:53 PM 32.0 °F 27.5 °F 18.0 °F 56% 30.23 in 10.0 mi NW 4.6 mph - N/A   Clear
5:53 PM 26.1 °F 19.4 °F 16.0 °F 66% 30.27 in 10.0 mi North 5.8 mph - N/A   Clear
6:53 PM 25.0 °F 19.3 °F 16.0 °F 69% 30.28 in 10.0 mi NW 4.6 mph - N/A   Clear
7:53 PM 19.0 °F 11.1 °F 12.9 °F 77% 30.32 in 10.0 mi NNW 5.8 mph - N/A   Clear
8:53 PM 21.2 °F 16.4 °F 12.2 °F 68% 30.20 in 10.0 mi NW 3.5 mph - N/A   Clear
9:53 PM 18.0 °F 8.7 °F 12.0 °F 78% 30.33 in 10.0 mi NNW 6.9 mph - N/A   Clear
10:53 PM 16.0 °F 6.3 °F 10.9 °F 81% 30.30 in 10.0 mi North 6.9 mph - N/A   Clear
11:53 PM 17.6 °F 12.3 °F 10.4 °F 73% 30.16 in 10.0 mi North 3.5 mph - N/A   Clear